Temperature
13 13 12 12 12 12 12 12 11 11 11 11 10 10 10 10 9 9 9 8 8 8 7 7 7 6 6 6 6 6 5 5 5 4 4 4 4 3 3 3 3 3 3
12 12 12 11 11 11 11 11 11 10 10 10 10 9 9 9 8 8 8 7 7 6 6 6 6 5 5 5 5 5 5 5 4 4 4 3 3 3 3 3 3 2 2
11 11 10 10 10 10 10 10 10 10 9 9 9 9 8 8 7 7 7 6 6 5 5 5 4 4 4 4 4 4 4 4 4 3 3 3 3 2 2 2 2 2 2
10 10 10 10 9 9 9 9 9 9 9 8 8 8 7 7 7 6 6 5 5 4 4 4 3 3 3 3 3 3 3 3 3 3 3 3 2 2 2 1 1 1 1
9 9 9 9 9 9 9 9 8 8 8 7 7 7 6 6 5 5 4 4 4 3 3 3 3 2 2 3 3 3 3 3 3 3 2 2 2 2 1 1 1 1 1
9 9 8 8 8 8 8 8 8 7 7 7 6 6 5 5 4 4 3 3 3 2 2 2 2 2 2 2 2 2 2 2 2 2 2 2 2 1 1 1 1 0 0
8 8 8 8 8 8 7 7 7 7 6 6 5 5 4 4 3 3 2 2 2 2 2 2 1 1 1 1 2 2 2 2 1 1 1 1 1 1 1 0 0 -0 -0
8 8 8 7 7 7 7 7 6 6 5 5 5 4 3 3 3 2 2 1 1 1 1 1 1 1 1 1 1 1 1 1 1 1 1 1 0 0 0 -0 -0 -1 -1
8 7 7 7 7 7 6 6 6 5 5 4 4 3 3 2 2 1 1 1 1 1 0 0 0 0 0 0 0 0 0 0 0 0 0 0 -0 -0 -0 -1 -1 -1 -1
7 7 7 7 6 6 6 5 5 4 4 3 3 3 2 2 1 1 0 0 0 -0 -0 -0 -0 -0 -0 -0 -0 -0 -0 -0 -0 -0 -0 -0 -1 -1 -1 -1 -1 -2 -2
7 6 6 6 6 5 5 4 4 3 3 3 2 2 1 1 0 0 -0 -0 -0 -0 -1 -1 -1 -1 -1 -1 -1 -1 -1 -1 -1 -1 -1 -1 -1 -1 -1 -2 -2 -2 -2
6 6 6 5 5 4 4 4 3 3 2 2 2 2 1 0 -0 -0 -1 -1 -1 -1 -1 -1 -1 -1 -1 -1 -1 -1 -2 -2 -2 -2 -2 -2 -2 -2 -2 -2 -2 -2 -2
5 5 5 5 4 4 3 3 3 2 2 2 1 1 0 -0 -0 -1 -1 -1 -1 -1 -1 -1 -1 -2 -2 -2 -2 -2 -2 -2 -2 -2 -2 -2 -2 -2 -3 -3 -3 -3 -3
5 4 4 4 4 3 3 2 2 2 2 1 1 1 0 -0 -1 -1 -1 -1 -1 -2 -2 -2 -2 -2 -2 -2 -2 -2 -2 -2 -2 -2 -2 -3 -3 -3 -3 -3 -3 -3 -3
4 4 4 3 3 3 2 2 2 1 1 1 0 0 -0 -0 -1 -1 -1 -1 -1 -2 -2 -2 -2 -2 -2 -2 -2 -2 -2 -2 -2 -2 -3 -3 -3 -3 -3 -3 -3 -3 -3
3 3 3 3 2 2 2 1 1 1 0 0 -0 -0 -1 -1 -1 -1 -1 -2 -2 -2 -2 -2 -2 -2 -2 -2 -2 -2 -2 -2 -2 -3 -3 -3 -3 -3 -3 -4 -4 -4 -4
2 2 2 2 2 1 1 1 1 0 0 -0 -0 -1 -1 -1 -1 -1 -2 -2 -2 -2 -2 -2 -2 -2 -2 -2 -2 -2 -2 -3 -3 -3 -3 -3 -3 -3 -4 -4 -4 -4 -4
2 2 2 1 1 1 1 1 0 0 -0 -0 -1 -1 -1 -1 -1 -2 -2 -2 -2 -2 -2 -1 -1 -2 -2 -2 -2 -2 -3 -3 -3 -3 -3 -3 -3 -4 -4 -4 -4 -4 -4
1 1 1 1 1 1 0 0 -0 -0 -1 -1 -1 -1 -1 -2 -2 -2 -2 -2 -2 -2 -2 -2 -2 -2 -2 -2 -2 -2 -3 -3 -3 -3 -3 -3 -4 -4 -4 -4 -4 -4 -5
1 0 0 0 -0 -0 -0 -0 -1 -1 -1 -1 -1 -1 -2 -2 -2 -2 -2 -2 -2 -2 -2 -2 -2 -2 -2 -2 -2 -3 -3 -3 -3 -3 -3 -3 -4 -4 -4 -4 -4 -5 -5
-0 -0 -1 -1 -1 -1 -1 -1 -1 -1 -2 -2 -2 -2 -2 -2 -2 -2 -2 -2 -2 -2 -2 -2 -2 -2 -2 -3 -3 -3 -3 -3 -3 -3 -3 -4 -4 -4 -4 -5 -5 -5 -5
-1 -1 -1 -1 -1 -1 -2 -2 -2 -2 -2 -2 -2 -2 -2 -3 -3 -3 -3 -3 -3 -3 -3 -3 -3 -3 -3 -3 -3 -3 -3 -3 -3 -3 -4 -4 -4 -5 -5 -5 -5 -6 -6
-1 -1 -2 -2 -2 -2 -2 -2 -2 -2 -2 -2 -3 -3 -3 -3 -3 -3 -3 -3 -3 -3 -3 -3 -3 -3 -3 -3 -3 -3 -3 -3 -4 -4 -4 -4 -5 -5 -5 -5 -6 -6 -6
-2 -2 -2 -2 -2 -2 -3 -3 -3 -3 -3 -3 -3 -3 -3 -3 -3 -3 -3 -4 -4 -4 -4 -4 -4 -4 -4 -4 -4 -4 -4 -4 -4 -5 -5 -5 -5 -5 -6 -6 -6 -6 -7
-2 -2 -2 -3 -3 -3 -3 -3 -3 -3 -4 -4 -4 -4 -4 -4 -4 -4 -4 -4 -4 -4 -4 -4 -4 -4 -4 -4 -4 -4 -4 -5 -5 -5 -5 -5 -6 -6 -6 -6 -6 -7 -7
-3 -3 -3 -3 -3 -3 -4 -4 -4 -4 -4 -4 -4 -4 -4 -4 -4 -4 -4 -4 -4 -4 -4 -5 -5 -5 -5 -5 -5 -5 -5 -5 -5 -6 -6 -6 -6 -6 -7 -7 -7 -7 -8
Wind_Speed
6 6 6 6 6 6 6 7 7 6 6 6 5 4 4 3 2 2 2 1 2 1 1 1 1 1 1 1 1 0 0 1 2 2 2 2 2 2 4 5 6 7 7
6 7 7 6 6 6 7 6 6 6 6 5 5 5 4 3 3 3 2 2 2 2 1 2 1 1 1 1 1 1 0 1 3 3 2 2 2 2 2 3 4 5 6
7 7 7 7 7 7 7 7 6 6 5 5 5 5 4 3 3 2 2 2 2 2 2 2 2 2 1 1 1 1 1 1 2 4 3 2 2 1 2 2 3 4 5
7 8 8 7 7 7 7 7 7 6 6 5 5 4 4 3 3 3 3 3 3 3 3 3 2 2 2 2 1 1 1 2 3 4 3 3 2 2 2 2 2 2 3
8 8 8 7 7 7 7 7 7 6 6 6 5 4 4 3 3 3 3 4 4 3 3 2 2 2 3 2 2 2 3 3 3 4 3 3 2 2 2 1 1 1 2
9 8 7 7 8 8 7 7 7 6 6 6 5 5 4 3 5 6 5 4 4 4 3 2 2 2 3 4 4 4 4 4 4 4 3 3 3 3 2 2 2 1 1
8 8 8 8 8 8 8 7 7 6 5 5 5 5 4 4 6 6 7 5 4 4 4 3 2 2 3 3 5 6 5 4 5 5 5 4 5 5 5 3 2 2 2
8 8 9 9 8 8 8 8 7 5 5 5 5 5 5 5 7 7 7 4 4 4 4 4 3 3 3 4 4 4 4 3 3 3 4 4 4 5 5 4 4 2 1
9 9 9 9 9 9 9 8 6 6 5 5 5 6 5 5 8 8 7 4 3 3 3 4 4 4 5 7 5 4 3 2 4 6 7 6 7 8 8 5 3 2 1
10 9 9 9 10 10 9 7 5 5 6 6 5 5 6 5 8 10 9 4 4 3 3 3 6 7 7 7 5 5 4 2 2 3 4 5 5 4 5 5 5 3 2
6 7 8 9 9 8 7 6 6 6 6 6 5 5 5 7 9 11 11 5 5 4 4 3 4 8 8 8 7 5 6 5 4 3 3 2 2 2 3 4 4 4 3
6 7 7 8 7 7 8 7 7 7 7 6 5 5 4 6 8 10 13 11 9 6 5 4 5 9 9 9 6 7 7 6 4 3 3 2 2 2 2 3 3 3 3
6 6 6 7 6 7 8 8 7 7 6 6 6 6 5 5 7 13 13 13 13 7 6 9 9 10 9 7 8 9 6 4 4 4 4 3 3 3 3 2 2 2 1
6 6 6 7 6 7 6 7 7 7 7 7 7 7 5 5 6 6 6 7 10 8 6 8 11 11 8 7 6 5 4 4 5 4 4 3 3 3 3 3 2 2 1
5 5 5 6 6 7 6 7 8 7 8 8 7 7 7 7 10 13 9 6 6 6 5 3 3 3 4 4 4 4 4 4 5 4 4 4 4 4 3 3 3 3 3
4 4 4 5 5 5 5 5 8 9 12 13 12 10 9 11 11 14 15 15 15 13 8 5 6 6 7 7 6 6 5 6 6 5 5 5 5 5 5 4 3 4 4
3 3 3 4 5 5 5 5 5 6 9 11 13 14 13 12 13 13 14 15 16 15 9 7 7 8 7 7 7 7 6 6 6 6 6 6 6 5 5 5 5 5 5
2 3 4 4 4 5 5 5 5 4 4 5 8 13 14 13 13 13 14 11 9 10 7 8 8 8 8 8 8 7 7 6 6 6 7 6 7 6 6 6 6 7 6
1 2 2 3 3 4 4 4 4 5 5 4 3 6 11 11 12 13 12 8 8 8 8 8 8 8 8 8 8 8 7 7 7 7 7 7 7 7 7 7 7 10 9
1 2 2 2 3 3 4 4 4 5 5 5 5 5 4 5 6 7 8 7 8 8 8 8 8 8 8 8 8 8 8 8 8 8 8 8 8 8 8 9 8 8 8
1 2 2 2 2 3 3 4 4 4 5 5 5 6 8 6 6 7 7 7 8 8 8 8 8 8 8 8 8 9 10 9 8 8 8 8 8 8 8 8 9 9 8
1 1 2 2 2 3 3 3 4 4 5 5 4 5 9 6 5 6 7 7 7 7 7 7 7 7 8 8 8 9 9 9 9 9 9 8 8 9 8 8 8 8 8
1 2 2 2 2 3 3 3 4 4 5 5 4 4 5 5 6 6 6 6 6 6 6 6 7 7 7 9 10 9 9 9 9 9 9 9 9 9 9 9 10 10 10
2 2 2 2 2 2 3 3 3 4 4 4 4 5 5 5 6 6 6 5 5 6 6 6 7 9 10 9 11 13 14 14 13 11 11 9 9 9 9 9 9 10 10
2 2 2 2 2 2 3 3 3 3 4 4 4 4 4 5 5 5 5 5 5 6 7 7 7 8 10 12 12 12 15 17 16 13 12 9 10 10 9 9 9 9 10
2 2 2 2 2 2 2 3 3 3 4 4 4 4 4 4 4 5 5 5 5 6 6 6 8 10 11 12 13 15 16 17 18 17 13 9 10 10 10 9 10 10 10
Wind_Direction
160 151 144 143 137 135 135 140 140 133 134 137 138 131 126 118 116 126 135 140 136 116 97 115 109 84 73 32 37 115 232 182 168 128 108 111 93 89 72 66 58 55 46
159 150 146 140 137 137 139 140 136 134 133 136 135 131 127 124 123 135 146 143 144 146 130 120 114 99 86 54 69 92 123 126 147 147 131 119 100 120 98 74 50 50 47
155 150 147 149 150 152 150 143 138 135 132 130 130 134 134 134 131 131 135 134 134 137 138 137 129 123 107 65 73 85 80 85 106 134 134 115 98 108 90 65 51 34 46
159 159 161 165 163 159 152 146 144 142 140 137 134 137 137 135 134 133 128 123 115 105 103 113 118 137 150 140 111 104 111 105 109 118 117 108 99 89 95 91 55 24 18
165 171 174 165 157 152 151 148 144 142 145 143 138 137 135 138 151 150 143 139 132 117 98 97 112 136 148 149 145 147 136 126 122 122 123 118 121 124 138 124 112 28 9
174 178 167 159 158 158 156 151 148 148 148 147 151 152 156 167 177 175 159 147 148 148 141 119 101 86 107 104 109 121 142 145 148 142 142 153 162 158 142 132 124 110 277
178 174 168 165 166 165 159 156 160 159 155 157 162 161 166 181 187 184 176 157 160 167 164 158 144 120 92 76 82 73 70 105 147 154 159 171 168 172 154 142 145 154 205
178 175 171 168 168 163 162 167 166 160 164 168 171 170 170 193 197 191 181 155 160 172 175 174 166 155 153 136 111 83 59 50 96 120 151 161 164 160 160 157 154 132 79
186 184 179 173 169 169 175 177 170 165 170 172 172 172 178 198 203 197 177 149 165 184 189 185 180 185 186 166 142 127 95 50 87 119 131 141 148 152 146 124 125 113 121
196 189 179 175 175 180 181 175 167 167 174 171 178 184 186 200 208 205 187 164 175 186 193 202 201 198 199 183 162 158 160 166 103 95 93 90 90 119 141 146 148 142 154
183 173 174 177 178 175 169 166 164 166 168 177 187 194 197 206 214 212 202 180 186 189 196 204 220 213 210 202 186 181 195 178 157 141 126 106 89 91 104 131 146 150 163
163 169 175 175 173 168 165 166 167 168 176 186 194 204 211 213 218 220 217 211 202 193 202 204 216 220 217 213 202 201 203 180 152 155 163 176 177 181 174 165 162 170 185
161 171 172 169 169 166 169 171 171 178 188 197 202 212 217 213 220 224 225 222 215 202 205 210 215 220 218 219 218 216 206 173 166 182 197 203 199 186 167 159 162 174 216
168 172 170 171 172 171 175 177 184 192 199 203 209 215 216 212 216 221 222 227 223 215 208 217 218 221 214 212 222 225 194 186 187 199 201 194 169 164 176 176 179 179 222
172 174 175 178 178 183 189 195 198 204 203 204 210 208 208 220 222 215 208 210 202 200 179 179 186 195 202 200 207 212 206 207 213 194 192 191 191 190 196 186 183 180 198
180 184 184 183 184 188 193 209 218 216 223 225 222 216 222 229 231 225 223 223 220 213 200 200 207 211 215 217 219 219 216 215 212 204 202 203 203 203 203 196 194 200 220
191 193 190 189 189 191 194 203 220 227 231 234 233 232 232 233 234 230 227 226 223 217 215 213 215 216 219 219 218 219 221 216 205 204 208 208 206 204 203 208 209 216 228
194 199 199 202 198 198 202 206 207 212 224 235 236 237 237 237 235 232 228 224 225 220 216 217 220 220 220 220 220 221 222 215 208 210 211 209 204 204 207 213 214 219 228
208 209 207 204 203 202 203 205 210 214 224 231 232 239 236 237 237 235 226 220 219 222 221 221 221 220 220 220 220 219 217 217 213 209 212 210 207 207 214 217 219 229 229
240 236 217 208 208 207 207 211 217 221 226 228 230 231 221 217 224 226 221 220 225 228 226 226 225 223 221 221 220 219 219 220 216 215 215 212 208 208 215 217 219 224 227
254 247 233 221 217 217 218 220 223 226 231 235 236 233 226 221 225 226 227 226 227 229 228 227 227 225 224 223 222 221 220 223 219 216 215 213 209 212 215 218 221 224 228
271 254 238 235 230 225 228 226 229 234 239 243 246 245 246 236 231 233 234 236 234 233 230 227 229 229 225 221 220 221 224 225 222 217 216 214 212 214 215 217 220 221 224
279 269 259 251 245 251 247 236 236 239 243 245 247 243 242 239 239 240 241 241 238 238 233 230 235 236 231 226 222 221 225 227 221 214 213 215 214 215 214 217 217 219 223
281 273 269 264 252 250 254 252 248 249 250 251 250 248 244 243 246 247 246 246 244 242 236 235 238 240 236 233 233 231 232 232 224 217 211 215 216 216 215 217 219 221 222
292 282 276 270 264 260 261 261 259 258 259 260 259 259 258 255 255 255 252 249 250 250 247 242 243 244 243 241 240 239 239 239 233 223 213 214 217 215 216 217 218 220 220
292 288 283 280 275 273 270 270 269 266 264 267 266 265 263 262 263 261 259 254 254 254 253 247 246 247 250 249 248 248 249 248 243 235 223 216 216 218 216 219 216 219 221
Height
1489 1491 1493 1495 1497 1499 1501 1503 1505 1506 1507 1508 1509 1509 1509 1508 1508 1508 1507 1506 1506 1505 1505 1504 1504 1504 1504 1504 1504 1505 1506 1506 1507 1507 1508 1508 1508 1509 1509 1509 1509 1509 1509
1485 1487 1488 1490 1492 1495 1497 1499 1500 1502 1503 1504 1504 1504 1504 1504 1504 1503 1502 1502 1501 1500 1500 1500 1500 1500 1500 1500 1500 1500 1501 1502 1503 1503 1504 1504 1505 1506 1506 1506 1507 1506 1506
1481 1483 1484 1486 1489 1491 1493 1495 1496 1498 1498 1499 1500 1500 1500 1499 1499 1498 1498 1497 1497 1496 1496 1496 1496 1496 1496 1496 1496 1497 1497 1497 1498 1499 1500 1501 1502 1502 1503 1504 1504 1504 1504
1477 1479 1481 1483 1485 1487 1489 1491 1492 1493 1494 1495 1495 1495 1495 1495 1495 1494 1494 1493 1493 1493 1493 1493 1493 1492 1492 1493 1493 1493 1494 1494 1495 1496 1497 1498 1499 1499 1500 1501 1501 1501 1501
1473 1475 1477 1480 1482 1484 1485 1487 1488 1489 1490 1491 1491 1491 1491 1491 1490 1490 1490 1489 1489 1489 1489 1489 1489 1489 1489 1490 1490 1490 1491 1491 1492 1492 1493 1494 1495 1496 1497 1498 1499 1499 1499
1469 1471 1474 1476 1478 1480 1482 1483 1484 1485 1486 1486 1487 1487 1487 1487 1487 1486 1486 1486 1486 1486 1486 1486 1486 1486 1487 1487 1487 1488 1488 1489 1489 1490 1491 1492 1493 1494 1495 1495 1496 1497 1497
1466 1468 1470 1472 1474 1476 1478 1479 1481 1481 1482 1483 1483 1483 1483 1483 1483 1483 1482 1483 1482 1483 1483 1483 1483 1484 1484 1484 1485 1485 1486 1486 1487 1488 1489 1489 1491 1491 1492 1493 1494 1494 1495
1462 1464 1466 1468 1471 1472 1474 1476 1477 1478 1479 1479 1479 1479 1480 1479 1479 1479 1479 1480 1480 1480 1480 1480 1481 1481 1482 1482 1483 1483 1483 1484 1485 1486 1487 1487 1488 1489 1490 1491 1492 1492 1492
1458 1460 1462 1465 1467 1469 1470 1472 1473 1474 1475 1475 1475 1476 1476 1476 1476 1476 1476 1476 1477 1477 1477 1478 1478 1479 1479 1480 1481 1481 1481 1482 1483 1483 1484 1485 1486 1487 1488 1489 1489 1490 1490
1454 1456 1459 1461 1463 1465 1466 1468 1469 1470 1471 1471 1472 1472 1472 1472 1473 1473 1473 1473 1474 1474 1474 1475 1476 1477 1477 1477 1478 1479 1479 1480 1481 1481 1482 1483 1484 1485 1485 1486 1487 1487 1487
1451 1453 1455 1457 1459 1461 1462 1464 1465 1466 1467 1467 1468 1468 1468 1469 1469 1470 1470 1470 1471 1471 1472 1473 1473 1474 1474 1475 1476 1477 1477 1478 1478 1479 1480 1481 1481 1482 1483 1484 1484 1485 1485
1447 1449 1451 1453 1454 1456 1458 1459 1461 1462 1462 1463 1463 1464 1464 1465 1466 1466 1467 1467 1468 1469 1469 1470 1471 1471 1472 1472 1473 1474 1475 1475 1476 1477 1477 1478 1479 1480 1480 1481 1481 1482 1482
1444 1445 1447 1449 1450 1452 1454 1455 1456 1457 1458 1459 1459 1460 1460 1461 1462 1463 1463 1464 1465 1465 1466 1467 1468 1468 1469 1469 1470 1471 1471 1472 1473 1474 1475 1476 1476 1477 1477 1478 1478 1479 1479
1440 1441 1443 1444 1446 1448 1449 1450 1451 1452 1453 1454 1455 1455 1456 1457 1458 1459 1459 1460 1461 1462 1463 1463 1464 1465 1465 1466 1467 1467 1468 1469 1470 1470 1471 1472 1473 1473 1474 1474 1475 1475 1475
1437 1438 1439 1440 1442 1443 1445 1446 1447 1448 1449 1450 1451 1451 1452 1453 1454 1455 1455 1456 1457 1458 1459 1459 1460 1461 1461 1462 1463 1464 1464 1465 1466 1467 1467 1468 1469 1470 1470 1471 1471 1471 1471
1434 1434 1436 1437 1438 1439 1440 1442 1442 1444 1445 1445 1446 1447 1447 1449 1449 1450 1451 1452 1453 1454 1454 1454 1455 1456 1457 1458 1458 1459 1460 1461 1462 1462 1463 1464 1465 1465 1466 1466 1466 1466 1466
1430 1431 1432 1433 1434 1435 1436 1437 1438 1440 1440 1441 1441 1442 1443 1444 1444 1445 1446 1447 1448 1449 1449 1449 1450 1451 1452 1453 1454 1454 1455 1456 1457 1457 1458 1459 1460 1460 1461 1461 1461 1461 1461
1427 1428 1429 1429 1430 1431 1432 1433 1434 1434 1435 1435 1437 1437 1438 1439 1440 1440 1442 1442 1443 1443 1443 1444 1445 1446 1447 1447 1448 1449 1450 1451 1451 1452 1453 1453 1454 1454 1455 1455 1456 1456 1456
1424 1425 1425 1426 1426 1427 1428 1429 1429 1430 1430 1431 1432 1432 1433 1434 1434 1435 1436 1436 1436 1437 1438 1439 1439 1440 1441 1442 1442 1443 1444 1444 1445 1446 1446 1447 1448 1448 1449 1449 1450 1450 1450
1421 1421 1421 1422 1422 1423 1423 1424 1425 1425 1426 1426 1427 1427 1428 1428 1428 1429 1430 1430 1431 1431 1432 1432 1433 1434 1434 1435 1436 1436 1437 1437 1438 1439 1439 1440 1441 1442 1442 1443 1443 1443 1443
1418 1418 1418 1418 1418 1418 1419 1420 1420 1421 1421 1421 1422 1422 1422 1423 1423 1423 1424 1424 1425 1425 1426 1426 1426 1427 1427 1428 1429 1429 1430 1430 1431 1431 1432 1433 1434 1434 1435 1435 1436 1436 1436
1415 1415 1414 1414 1415 1415 1415 1415 1415 1416 1416 1416 1416 1417 1417 1417 1417 1417 1417 1418 1418 1418 1419 1419 1419 1419 1420 1421 1421 1421 1422 1422 1423 1424 1425 1425 1426 1426 1427 1428 1428 1429 1429
1412 1412 1411 1411 1411 1411 1411 1411 1411 1411 1411 1411 1411 1411 1411 1410 1410 1410 1411 1411 1411 1411 1411 1411 1411 1411 1412 1413 1413 1413 1414 1415 1416 1416 1417 1417 1418 1418 1419 1419 1420 1421 1421
1410 1409 1408 1408 1407 1407 1407 1407 1406 1406 1406 1406 1405 1405 1405 1405 1405 1404 1404 1404 1404 1404 1404 1403 1403 1403 1404 1404 1405 1405 1406 1407 1408 1408 1409 1409 1410 1410 1411 1411 1412 1413 1413
1407 1406 1405 1404 1404 1403 1403 1402 1402 1402 1401 1401 1400 1400 1399 1399 1399 1398 1398 1397 1397 1396 1396 1396 1396 1396 1396 1396 1396 1397 1398 1398 1399 1400 1400 1400 1401 1402 1402 1403 1404 1405 1405
1404 1403 1402 1401 1400 1400 1399 1398 1398 1397 1397 1396 1395 1395 1394 1393 1392 1392 1391 1390 1390 1389 1389 1389 1388 1388 1388 1388 1388 1388 1389 1389 1390 1391 1391 1392 1392 1393 1394 1395 1396 1396 1397